Find Starlink 37073

NORAD ID: 68151 Int'l Des: 2026-049 Owner: SPXS Country: US Constellation: starlink operational
LEOCIRCULARRETROGRADE

Live Position

Loading 3D Globe...

About Starlink 37073

Description loading...

Upcoming Passes

Passes for default location (London). Set your location on the main map for personalized predictions.

Altitude History

Loading altitude history...

Two-Line Element Set

1 68151U 26049K 26119.83335647 -.01877996 00000-0 -26952-1 0 9994
2 68151 97.2846 141.5989 0001809 77.3622 104.5821 15.59333705 5952
Epoch: Apr 29, 2026 • Age: 4 hours

Current Status

Altitude 402.4 km
Velocity 7.68 km/s
Sub-Earth Point 67.57°N, 96.18°W
Launch Date Mar 13, 2026
Age 0.1 years
Type internet

Technical Details

Classification Payload
Mass 575.00 kg
Dry Mass 530.00 kg
Total Mass 575.00 kg
Length 0.30 m
Diameter 4.10 m
Span 29.00 m
Shape Box + pan
Manufacturer SPXS
Bus Type Starlink V2MO
Phase Status In Orbit
Owner/State SPXS/US

Most Searched